Location: Newark
(54.0500°N, 12.8333°E)
Time: 11:34:25
(UTC+00:00)

Vanguard 1 Rocket - All Passes

Search period start: 22 January 2020 00:00
Search period end: 01 February 2020 00:00
Orbit: 650 x 4226 km, 34.3° (Epoch: 21 January)

Date Brightness Start Highest point End Pass type
(mag) Time Alt. Az. Time Alt. Az. Time Alt. Az.
22 Jan - 08:43:10 10° S 08:49:54 19° SE 08:59:35 10° ESE daylight
22 Jan - 11:03:43 10° SW 11:14:26 35° SSE 11:32:11 10° ESE daylight
22 Jan - 13:27:42 10° WSW 13:41:25 35° SSW 14:01:48 10° SE daylight
22 Jan - 15:55:24 10° WSW 16:08:57 22° SW 16:25:21 10° S visible
23 Jan - 07:38:23 10° SE 07:39:35 10° SE 07:40:51 10° ESE daylight
23 Jan - 09:54:02 10° SSW 10:02:51 29° SSE 10:17:11 10° ESE daylight
23 Jan - 12:16:45 10° WSW 12:28:46 36° S 12:48:04 10° SE daylight
23 Jan - 14:42:26 10° WSW 14:56:12 28° SSW 15:14:44 10° SSE daylight
23 Jan - 17:18:13 10° WSW 17:22:55 11° SW 17:27:51 10° SW visible
24 Jan - 08:45:09 10° S 08:51:53 21° SE 09:01:54 10° ESE daylight
24 Jan - 11:06:22 10° SW 11:16:36 34° S 11:33:41 10° ESE daylight
24 Jan - 13:30:38 10° WSW 13:43:28 32° SSW 14:02:29 10° SE daylight
24 Jan - 15:59:32 10° WSW 16:10:39 17° SW 16:23:52 10° S visible
25 Jan - 07:38:10 10° SSE 07:41:28 12° SE 07:45:28 10° ESE daylight
25 Jan - 09:56:32 10° SW 10:05:00 30° SSE 10:18:57 10° ESE daylight
25 Jan - 12:19:35 10° WSW 12:30:57 34° S 12:49:07 10° SE daylight
25 Jan - 14:45:51 10° WSW 14:58:07 23° SSW 15:14:23 10° S daylight
26 Jan - 08:47:24 10° SSW 08:54:00 22° SSE 09:04:04 10° ESE daylight
26 Jan - 11:09:08 10° SW 11:18:51 33° S 11:35:03 10° ESE daylight
26 Jan - 13:33:45 10° WSW 13:45:34 27° SSW 14:02:47 10° SSE daylight
26 Jan - 16:05:16 10° WSW 16:12:25 13° SW 16:20:28 10° SSW visible
27 Jan - 07:39:32 10° SSE 07:43:32 14° SE 07:48:37 10° ESE daylight
27 Jan - 09:59:12 10° SW 10:07:16 29° SSE 10:20:37 10° ESE daylight
27 Jan - 12:22:34 10° WSW 12:33:11 30° S 12:49:55 10° SE daylight
27 Jan - 14:49:48 10° WSW 15:00:05 18° SSW 15:13:14 10° S daylight
28 Jan - 08:49:50 10° SSW 08:56:14 23° SSE 09:06:06 10° ESE daylight
28 Jan - 11:12:00 10° WSW 11:21:11 30° S 11:36:15 10° SE daylight
28 Jan - 13:37:09 10° WSW 13:47:42 23° SSW 14:02:38 10° SSE daylight
29 Jan - 07:41:27 10° S 07:45:41 15° SE 07:51:18 10° ESE daylight
29 Jan - 10:01:58 10° SW 10:09:38 28° S 10:22:11 10° ESE daylight
29 Jan - 12:25:44 10° WSW 12:35:29 26° SSW 12:50:24 10° SSE daylight
29 Jan - 14:54:56 10° WSW 15:02:06 14° SW 15:10:39 10° SSW daylight
30 Jan - 08:52:27 10° SSW 08:58:35 23° SSE 09:08:02 10° ESE daylight
30 Jan - 11:15:01 10° WSW 11:23:34 27° S 11:37:14 10° SE daylight
30 Jan - 13:41:03 10° WSW 13:49:54 18° SSW 14:01:48 10° S daylight
31 Jan - 07:43:41 10° S 07:47:58 16° SSE 07:53:46 10° ESE daylight
31 Jan - 10:04:52 10° SW 10:12:04 26° S 10:23:37 10° SE daylight
31 Jan - 12:29:09 10° WSW 12:37:49 22° SSW 12:50:29 10° SSE daylight
